AAL1401 KATL-KLAX

Flight info

Callsign AAL1401
Flight time 4h 45m
Altitude 34000
Route NASSA2 YAALL J14 PNH DCT ACH DCT ABQ J78 DRK DCT GABBL HLYWD1
Aircraft A321/M-V/N

Departure

Time 2026-05-05 16:52
Airport Hartsfield Jackson Atlanta International Airport (KATL)

Arrival

Time 2026-05-05 21:37
Airport Los Angeles International Airport (KLAX)
Time Latitude Longitude Altitude Speed Heading
2026-05-05 16:26 33.64378 -84.44191 1035 ft 0 kts 270°
2026-05-05 16:39 33.64378 -84.44185 1035 ft 2 kts 270°
2026-05-05 16:39 33.64378 -84.44164 1035 ft 3 kts 277°
2026-05-05 16:40 33.64373 -84.44139 1035 ft 3 kts 295°
2026-05-05 16:40 33.64364 -84.44122 1035 ft 3 kts 331°
2026-05-05 16:40 33.64353 -84.44117 1035 ft 0 kts 358°
2026-05-05 16:43 33.64354 -84.44117 1035 ft 1 kts 358°
2026-05-05 16:43 33.64401 -84.44097 1035 ft 14 kts 40°
2026-05-05 16:43 33.64427 -84.43991 1035 ft 11 kts 82°
2026-05-05 16:43 33.64437 -84.43908 1035 ft 9 kts 82°
2026-05-05 16:44 33.64445 -84.43833 1035 ft 10 kts 83°
2026-05-05 16:44 33.64455 -84.43737 1035 ft 13 kts 83°
2026-05-05 16:44 33.64460 -84.43662 1035 ft 15 kts 89°
2026-05-05 16:44 33.64460 -84.43481 1035 ft 17 kts 90°
2026-05-05 16:45 33.64460 -84.43345 1035 ft 15 kts 90°
2026-05-05 16:45 33.64459 -84.43234 1036 ft 12 kts 90°
2026-05-05 16:45 33.64459 -84.43145 1036 ft 9 kts 90°
2026-05-05 16:45 33.64459 -84.43079 1036 ft 7 kts 90°
2026-05-05 16:46 33.64459 -84.43024 1035 ft 6 kts 90°
2026-05-05 16:46 33.64459 -84.42986 1035 ft 9 kts 89°
2026-05-05 16:46 33.64461 -84.42828 1035 ft 17 kts 88°
2026-05-05 16:46 33.64465 -84.42687 1035 ft 17 kts 88°
2026-05-05 16:47 33.64467 -84.42592 1035 ft 17 kts 88°
2026-05-05 16:47 33.64469 -84.42449 1035 ft 17 kts 90°
2026-05-05 16:47 33.64470 -84.42306 1035 ft 17 kts 87°
2026-05-05 16:47 33.64512 -84.42172 1035 ft 17 kts 62°
2026-05-05 16:48 33.64543 -84.42038 1035 ft 17 kts 90°
2026-05-05 16:48 33.64542 -84.41898 1035 ft 17 kts 90°
2026-05-05 16:48 33.64542 -84.41755 1036 ft 19 kts 90°
2026-05-05 16:48 33.64543 -84.41562 1036 ft 24 kts 90°
2026-05-05 16:49 33.64543 -84.41369 1036 ft 24 kts 89°
2026-05-05 16:49 33.64545 -84.41170 1036 ft 23 kts 89°
2026-05-05 16:49 33.64545 -84.40982 1035 ft 23 kts 91°
2026-05-05 16:49 33.64559 -84.40799 1035 ft 21 kts 75°
2026-05-05 16:50 33.64571 -84.40634 1034 ft 15 kts 82°
2026-05-05 16:50 33.64650 -84.40572 1033 ft 13 kts 353°
2026-05-05 16:50 33.64681 -84.40619 1033 ft 0 kts 274°
2026-05-05 16:51 33.64681 -84.40641 1033 ft 13 kts 272°
2026-05-05 16:51 33.64678 -84.41063 1036 ft 84 kts 269°
2026-05-05 16:51 33.64679 -84.42021 1035 ft 142 kts 270°
2026-05-05 16:52 33.64678 -84.43432 1097 ft 184 kts 268°
2026-05-05 16:52 33.64703 -84.45001 1978 ft 176 kts 270°
2026-05-05 16:52 33.64808 -84.46424 2699 ft 182 kts 279°
2026-05-05 16:52 33.65063 -84.47904 3217 ft 188 kts 281°
2026-05-05 16:53 33.65392 -84.49590 3606 ft 227 kts 282°
2026-05-05 16:53 33.65785 -84.51534 4260 ft 251 kts 282°
2026-05-05 16:53 33.66184 -84.53671 4865 ft 273 kts 281°
2026-05-05 16:53 33.66595 -84.55963 5425 ft 282 kts 281°
2026-05-05 16:54 33.67032 -84.58398 6052 ft 273 kts 280°
2026-05-05 16:54 33.67393 -84.60450 6632 ft 274 kts 279°
2026-05-05 16:54 33.67775 -84.62688 7232 ft 275 kts 279°
2026-05-05 16:54 33.68156 -84.64947 7857 ft 277 kts 279°
2026-05-05 16:55 33.68535 -84.67205 8543 ft 275 kts 279°
2026-05-05 16:55 33.68911 -84.69469 9205 ft 276 kts 279°
2026-05-05 16:55 33.69287 -84.71729 9806 ft 280 kts 279°
2026-05-05 16:55 33.69679 -84.74091 9954 ft 291 kts 279°
2026-05-05 16:56 33.69987 -84.76586 10106 ft 292 kts 269°
2026-05-05 16:56 33.69987 -84.78914 10393 ft 300 kts 268°
2026-05-05 16:56 33.69980 -84.81470 11016 ft 304 kts 268°
2026-05-05 16:56 33.69976 -84.84024 11596 ft 307 kts 269°
2026-05-05 16:57 33.69972 -84.86588 12194 ft 308 kts 269°
2026-05-05 16:57 33.69966 -84.89176 12798 ft 311 kts 269°
2026-05-05 16:57 33.69960 -84.91798 13288 ft 317 kts 269°
2026-05-05 16:57 33.69954 -84.94473 13755 ft 323 kts 270°
2026-05-05 16:58 33.69946 -84.97195 14209 ft 328 kts 270°
2026-05-05 16:58 33.69940 -84.99958 14639 ft 333 kts 270°
2026-05-05 16:58 33.69933 -85.02763 15077 ft 338 kts 270°
2026-05-05 16:58 33.69927 -85.05573 15531 ft 342 kts 270°
2026-05-05 16:59 33.69919 -85.08470 16026 ft 344 kts 270°
2026-05-05 16:59 33.69910 -85.11356 16555 ft 346 kts 270°
2026-05-05 16:59 33.69900 -85.14249 17095 ft 347 kts 270°
2026-05-05 16:59 33.69888 -85.17147 17640 ft 348 kts 270°
2026-05-05 17:00 33.69874 -85.20061 18196 ft 348 kts 270°
2026-05-05 17:00 33.69859 -85.22972 18709 ft 349 kts 270°
2026-05-05 17:00 33.69836 -85.25887 19195 ft 349 kts 270°
2026-05-05 17:00 33.69806 -85.28794 19686 ft 348 kts 270°
2026-05-05 17:01 33.69774 -85.31699 20192 ft 347 kts 270°
2026-05-05 17:01 33.69740 -85.34594 20701 ft 346 kts 270°
2026-05-05 17:01 33.69705 -85.37474 21219 ft 345 kts 270°
2026-05-05 17:01 33.69670 -85.40353 21719 ft 344 kts 270°
2026-05-05 17:02 33.69634 -85.43207 22035 ft 349 kts 270°
2026-05-05 17:02 33.69599 -85.46176 22091 ft 361 kts 270°
2026-05-05 17:02 33.69563 -85.49271 22085 ft 374 kts 270°
2026-05-05 17:02 33.69522 -85.52457 22185 ft 382 kts 270°
2026-05-05 17:03 33.69477 -85.55695 22705 ft 381 kts 270°
2026-05-05 17:03 33.69434 -85.58872 23188 ft 381 kts 270°
2026-05-05 17:03 33.69390 -85.62093 23627 ft 381 kts 270°
2026-05-05 17:03 33.69347 -85.65231 23987 ft 381 kts 270°
2026-05-05 17:04 33.69304 -85.68412 24361 ft 381 kts 270°
2026-05-05 17:04 33.69260 -85.71597 24730 ft 381 kts 270°
2026-05-05 17:04 33.69214 -85.74775 25111 ft 380 kts 269°
2026-05-05 17:04 33.69166 -85.77990 25493 ft 380 kts 269°
2026-05-05 17:05 33.69120 -85.81124 25881 ft 379 kts 269°
2026-05-05 17:05 33.69073 -85.84286 26273 ft 378 kts 269°
2026-05-05 17:05 33.69028 -85.87437 26673 ft 377 kts 269°
2026-05-05 17:05 33.68997 -85.89556 26939 ft 376 kts 269°
2026-05-05 17:06 33.68950 -85.92681 27346 ft 374 kts 269°
2026-05-05 17:06 33.68897 -85.95842 27764 ft 372 kts 269°
2026-05-05 17:06 33.68841 -85.98932 28188 ft 369 kts 269°
2026-05-05 17:06 33.68786 -86.02039 28610 ft 367 kts 269°
2026-05-05 17:07 33.68810 -86.05099 29043 ft 363 kts 275°
2026-05-05 17:07 33.69054 -86.08108 29445 ft 361 kts 276°
2026-05-05 17:07 33.69299 -86.11114 29814 ft 360 kts 275°
2026-05-05 17:07 33.69536 -86.14109 30035 ft 362 kts 275°
2026-05-05 17:08 33.70013 -86.20251 30084 ft 376 kts 275°
2026-05-05 17:08 33.70513 -86.26608 30074 ft 389 kts 275°
2026-05-05 17:09 33.71031 -86.33210 30074 ft 402 kts 275°
2026-05-05 17:09 33.71549 -86.39969 30134 ft 408 kts 275°
2026-05-05 17:10 33.71802 -86.43340 30512 ft 404 kts 275°
2026-05-05 17:10 33.72054 -86.46696 30893 ft 401 kts 275°
2026-05-05 17:10 33.72308 -86.50027 31279 ft 397 kts 275°
2026-05-05 17:10 33.72559 -86.53319 31668 ft 393 kts 276°
2026-05-05 17:11 33.72806 -86.56570 32074 ft 389 kts 276°
2026-05-05 17:11 33.73048 -86.59799 32487 ft 385 kts 276°
2026-05-05 17:11 33.73284 -86.62976 32904 ft 380 kts 276°
2026-05-05 17:11 33.73521 -86.66176 33271 ft 376 kts 276°
2026-05-05 17:12 33.73751 -86.69293 33647 ft 372 kts 276°
2026-05-05 17:12 33.73980 -86.72374 34001 ft 370 kts 276°
2026-05-05 17:12 33.74443 -86.78597 34059 ft 378 kts 276°
2026-05-05 17:13 33.74912 -86.84969 34065 ft 388 kts 276°
2026-05-05 17:13 33.75388 -86.91574 34043 ft 394 kts 276°
2026-05-05 17:14 33.75863 -86.98164 34042 ft 394 kts 276°
2026-05-05 17:14 33.76329 -87.04735 34013 ft 394 kts 276°
2026-05-05 17:15 33.76807 -87.11389 34023 ft 394 kts 277°
2026-05-05 17:15 33.77271 -87.17946 34031 ft 394 kts 277°
2026-05-05 17:16 33.77726 -87.24511 34051 ft 393 kts 276°
2026-05-05 17:16 33.78179 -87.31062 34051 ft 393 kts 277°
2026-05-05 17:17 33.78634 -87.37618 34052 ft 392 kts 276°
2026-05-05 17:17 33.79078 -87.44115 34041 ft 392 kts 277°
2026-05-05 17:18 33.79856 -87.50580 34039 ft 390 kts 285°
2026-05-05 17:18 33.81192 -87.56894 34020 ft 390 kts 285°
2026-05-05 17:19 33.82509 -87.63219 34014 ft 389 kts 285°
2026-05-05 17:19 33.83817 -87.69547 33998 ft 389 kts 285°
2026-05-05 17:20 33.85130 -87.75870 33992 ft 389 kts 285°
2026-05-05 17:20 33.86438 -87.82189 33987 ft 389 kts 285°
2026-05-05 17:21 33.87738 -87.88510 33994 ft 388 kts 285°
2026-05-05 17:22 33.89683 -87.97979 33991 ft 388 kts 285°
2026-05-05 17:22 33.90965 -88.04248 33996 ft 388 kts 285°
2026-05-05 17:23 33.92251 -88.10559 33994 ft 387 kts 285°
2026-05-05 17:23 33.93537 -88.16849 33992 ft 387 kts 285°
2026-05-05 17:24 33.94812 -88.23153 33992 ft 386 kts 285°
2026-05-05 17:24 33.96081 -88.29432 33994 ft 386 kts 285°
2026-05-05 17:25 33.97340 -88.35667 33984 ft 385 kts 285°
2026-05-05 17:25 33.98603 -88.41950 33987 ft 385 kts 285°
2026-05-05 17:26 33.99861 -88.48226 33984 ft 385 kts 285°
2026-05-05 17:26 34.01112 -88.54505 33993 ft 384 kts 285°
2026-05-05 17:27 34.02363 -88.60772 33994 ft 384 kts 285°
2026-05-05 17:27 34.03606 -88.67033 33995 ft 383 kts 285°
2026-05-05 17:28 34.04641 -88.72223 33996 ft 383 kts 285°
2026-05-05 17:28 34.05883 -88.78472 34000 ft 382 kts 285°
2026-05-05 17:29 34.07113 -88.84713 33993 ft 381 kts 285°
2026-05-05 17:29 34.08334 -88.90937 33993 ft 381 kts 285°
2026-05-05 17:30 34.09553 -88.97162 33992 ft 381 kts 285°
2026-05-05 17:30 34.10776 -89.03392 33994 ft 380 kts 285°
2026-05-05 17:31 34.11978 -89.09549 33981 ft 380 kts 285°
2026-05-05 17:31 34.13185 -89.15756 33990 ft 379 kts 285°
2026-05-05 17:32 34.14387 -89.21953 33973 ft 379 kts 285°
2026-05-05 17:32 34.15582 -89.28147 33974 ft 378 kts 285°
2026-05-05 17:33 34.16779 -89.34338 33977 ft 378 kts 284°
2026-05-05 17:33 34.17968 -89.40523 33985 ft 377 kts 284°
2026-05-05 17:34 34.19151 -89.46700 33982 ft 377 kts 284°
2026-05-05 17:34 34.20323 -89.52870 33983 ft 376 kts 284°
2026-05-05 17:35 34.21481 -89.58984 33979 ft 375 kts 284°
2026-05-05 17:35 34.22655 -89.65127 33980 ft 375 kts 285°
2026-05-05 17:36 34.23825 -89.71261 33948 ft 374 kts 284°
2026-05-05 17:36 34.24991 -89.77433 33955 ft 374 kts 284°
2026-05-05 17:37 34.26150 -89.83563 33948 ft 374 kts 284°
2026-05-05 17:37 34.27295 -89.89699 33955 ft 373 kts 284°
2026-05-05 17:38 34.28440 -89.95817 33954 ft 373 kts 284°
2026-05-05 17:38 34.29579 -90.01903 33795 ft 366 kts 284°
2026-05-05 17:38 34.30130 -90.04872 33926 ft 360 kts 284°
2026-05-05 17:39 34.30675 -90.07815 33933 ft 357 kts 284°
2026-05-05 17:39 34.31761 -90.13660 33928 ft 355 kts 284°
2026-05-05 17:40 34.32846 -90.19492 33924 ft 355 kts 284°
2026-05-05 17:40 34.33922 -90.25312 33914 ft 355 kts 284°
2026-05-05 17:41 34.34999 -90.31152 33912 ft 355 kts 284°
2026-05-05 17:41 34.36069 -90.36986 33911 ft 355 kts 284°
2026-05-05 17:42 34.37141 -90.42827 33916 ft 355 kts 284°
2026-05-05 17:42 34.38211 -90.48671 33920 ft 355 kts 284°
2026-05-05 17:43 34.39269 -90.54511 33918 ft 355 kts 284°
2026-05-05 17:43 34.40340 -90.60446 33919 ft 356 kts 284°
2026-05-05 17:44 34.41400 -90.66299 33919 ft 356 kts 284°
2026-05-05 17:44 34.42468 -90.72212 33914 ft 356 kts 284°
2026-05-05 17:45 34.43518 -90.78070 33912 ft 356 kts 284°
2026-05-05 17:45 34.44570 -90.83942 33907 ft 356 kts 284°
2026-05-05 17:46 34.45619 -90.89803 33900 ft 356 kts 284°
2026-05-05 17:46 34.46670 -90.95679 33904 ft 356 kts 283°
2026-05-05 17:47 34.47720 -91.01600 33902 ft 356 kts 283°
2026-05-05 17:47 34.48760 -91.07469 33901 ft 356 kts 283°
2026-05-05 17:48 34.49801 -91.13347 33896 ft 356 kts 283°
2026-05-05 17:48 34.50852 -91.19307 33901 ft 356 kts 283°
2026-05-05 17:49 34.51889 -91.25197 33896 ft 356 kts 283°
2026-05-05 17:49 34.52914 -91.31064 33894 ft 356 kts 283°
2026-05-05 17:50 34.53773 -91.35997 33897 ft 356 kts 283°
2026-05-05 17:50 34.54800 -91.41866 33895 ft 356 kts 283°
2026-05-05 17:51 34.55821 -91.47744 33898 ft 356 kts 283°
2026-05-05 17:51 34.56845 -91.53669 33900 ft 356 kts 283°
2026-05-05 17:52 34.57858 -91.59555 33897 ft 356 kts 283°
2026-05-05 17:52 34.58865 -91.65434 33896 ft 356 kts 282°
2026-05-05 17:53 34.59873 -91.71309 33895 ft 356 kts 282°
2026-05-05 17:53 34.60880 -91.77195 33895 ft 356 kts 282°
2026-05-05 17:54 34.61879 -91.83076 33888 ft 355 kts 282°
2026-05-05 17:54 34.62886 -91.89004 33883 ft 355 kts 282°
2026-05-05 17:55 34.63882 -91.94887 33871 ft 355 kts 282°
2026-05-05 17:55 34.64872 -92.00763 33870 ft 355 kts 282°
2026-05-05 17:56 34.65867 -92.06645 33871 ft 355 kts 282°
2026-05-05 17:56 34.66850 -92.12522 33871 ft 355 kts 282°
2026-05-05 17:57 34.67828 -92.18398 33869 ft 355 kts 282°
2026-05-05 17:57 34.68726 -92.24338 33873 ft 355 kts 281°
2026-05-05 17:58 34.69568 -92.30268 33868 ft 355 kts 280°
2026-05-05 17:58 34.70406 -92.36184 33868 ft 355 kts 280°
2026-05-05 17:59 34.71255 -92.42109 33868 ft 355 kts 281°
2026-05-05 17:59 34.72103 -92.48019 33866 ft 355 kts 280°
2026-05-05 18:00 34.72945 -92.53924 33859 ft 355 kts 280°
2026-05-05 18:00 34.73787 -92.59829 33856 ft 354 kts 280°
2026-05-05 18:01 34.74626 -92.65735 33844 ft 355 kts 280°
2026-05-05 18:01 34.75470 -92.71696 33842 ft 355 kts 280°
2026-05-05 18:02 34.76308 -92.77611 33830 ft 354 kts 280°
2026-05-05 18:02 34.77135 -92.83527 33825 ft 354 kts 280°
2026-05-05 18:03 34.77956 -92.89441 33824 ft 354 kts 280°
2026-05-05 18:03 34.78780 -92.95361 33822 ft 354 kts 280°
2026-05-05 18:04 34.79609 -93.01311 33823 ft 354 kts 280°
2026-05-05 18:04 34.80424 -93.07216 33820 ft 354 kts 279°
2026-05-05 18:05 34.81234 -93.13132 33810 ft 354 kts 279°
2026-05-05 18:05 34.82049 -93.19086 33810 ft 354 kts 279°
2026-05-05 18:06 34.82859 -93.25008 33805 ft 354 kts 279°
2026-05-05 18:06 34.83670 -93.30925 33802 ft 354 kts 279°
2026-05-05 18:07 34.84478 -93.36848 33803 ft 354 kts 279°
2026-05-05 18:07 34.85277 -93.42769 33801 ft 354 kts 279°
2026-05-05 18:08 34.86077 -93.48701 33799 ft 354 kts 279°
2026-05-05 18:08 34.86875 -93.54618 33797 ft 354 kts 279°
2026-05-05 18:09 34.87668 -93.60547 33797 ft 354 kts 279°
2026-05-05 18:09 34.88454 -93.66478 33799 ft 354 kts 279°
2026-05-05 18:10 34.89240 -93.72397 33794 ft 354 kts 279°
2026-05-05 18:10 34.90023 -93.78320 33790 ft 354 kts 278°
2026-05-05 18:11 34.90669 -93.83237 33785 ft 354 kts 278°
2026-05-05 18:11 34.91441 -93.89158 33785 ft 354 kts 278°
2026-05-05 18:12 34.92209 -93.95080 33778 ft 354 kts 279°
2026-05-05 18:12 34.92987 -94.01011 33776 ft 353 kts 278°
2026-05-05 18:13 34.93757 -94.06924 33773 ft 353 kts 278°
2026-05-05 18:13 34.94517 -94.12806 33771 ft 353 kts 278°
2026-05-05 18:14 34.95280 -94.18715 33765 ft 353 kts 278°
2026-05-05 18:14 34.96034 -94.24636 33765 ft 353 kts 278°
2026-05-05 18:15 34.96787 -94.30562 33765 ft 353 kts 278°
2026-05-05 18:15 34.97535 -94.36480 33767 ft 353 kts 278°
2026-05-05 18:16 34.98286 -94.42398 33772 ft 353 kts 278°
2026-05-05 18:16 34.99038 -94.48309 33779 ft 353 kts 278°
2026-05-05 18:17 34.99783 -94.54224 33781 ft 353 kts 278°
2026-05-05 18:17 35.00515 -94.60103 33783 ft 352 kts 278°
2026-05-05 18:18 35.01251 -94.66014 33779 ft 352 kts 278°
2026-05-05 18:18 35.02009 -94.71917 33783 ft 352 kts 278°
2026-05-05 18:19 35.02829 -94.77823 33777 ft 352 kts 278°
2026-05-05 18:19 35.03651 -94.83759 33776 ft 353 kts 278°
2026-05-05 18:20 35.04459 -94.89664 33767 ft 352 kts 278°
2026-05-05 18:20 35.05260 -94.95568 33752 ft 352 kts 278°
2026-05-05 18:21 35.06049 -95.01441 33753 ft 352 kts 278°
2026-05-05 18:21 35.06844 -95.07338 33752 ft 352 kts 278°
2026-05-05 18:22 35.07636 -95.13263 33760 ft 352 kts 278°
2026-05-05 18:22 35.08424 -95.19177 33756 ft 352 kts 278°
2026-05-05 18:23 35.09205 -95.25079 33750 ft 352 kts 277°
2026-05-05 18:23 35.09993 -95.31036 33753 ft 352 kts 277°
2026-05-05 18:24 35.10768 -95.36937 33749 ft 352 kts 277°
2026-05-05 18:24 35.11540 -95.42855 33744 ft 352 kts 277°
2026-05-05 18:25 35.12300 -95.48727 33746 ft 352 kts 277°
2026-05-05 18:25 35.13025 -95.54727 33744 ft 352 kts 276°
2026-05-05 18:26 35.13720 -95.60642 33749 ft 352 kts 276°
2026-05-05 18:26 35.14420 -95.66578 33749 ft 352 kts 276°
2026-05-05 18:27 35.15118 -95.72488 33755 ft 352 kts 276°
2026-05-05 18:27 35.15815 -95.78407 33741 ft 351 kts 276°
2026-05-05 18:28 35.16855 -95.87284 33742 ft 351 kts 276°
2026-05-05 18:28 35.17545 -95.93202 33734 ft 351 kts 276°
2026-05-05 18:29 35.18225 -95.99083 33738 ft 352 kts 276°
2026-05-05 18:29 35.18909 -96.04999 33729 ft 351 kts 276°
2026-05-05 18:30 35.19594 -96.10929 33731 ft 352 kts 276°
2026-05-05 18:30 35.20273 -96.16856 33732 ft 352 kts 276°
2026-05-05 18:31 35.20945 -96.22778 33733 ft 351 kts 275°
2026-05-05 18:31 35.21617 -96.28700 33736 ft 351 kts 275°
2026-05-05 18:32 35.22281 -96.34589 33753 ft 351 kts 275°
2026-05-05 18:32 35.22951 -96.40518 33772 ft 351 kts 275°
2026-05-05 18:33 35.23618 -96.46443 33771 ft 351 kts 275°
2026-05-05 18:33 35.24279 -96.52364 33789 ft 351 kts 275°
2026-05-05 18:34 35.24935 -96.58284 33801 ft 351 kts 275°
2026-05-05 18:34 35.25588 -96.64170 33801 ft 351 kts 275°
2026-05-05 18:35 35.26246 -96.70121 33802 ft 351 kts 275°
2026-05-05 18:35 35.26890 -96.76003 33798 ft 351 kts 275°
2026-05-05 18:36 35.27536 -96.81921 33791 ft 351 kts 275°
2026-05-05 18:36 35.28179 -96.87841 33833 ft 351 kts 275°
2026-05-05 18:37 35.28818 -96.93766 33832 ft 351 kts 275°
2026-05-05 18:37 35.29458 -96.99694 33831 ft 351 kts 275°
2026-05-05 18:38 35.30091 -97.05621 33827 ft 351 kts 275°
2026-05-05 18:38 35.30728 -97.11599 33814 ft 351 kts 275°
2026-05-05 18:39 35.31355 -97.17524 33804 ft 351 kts 274°
2026-05-05 18:39 35.31882 -97.22491 33811 ft 351 kts 275°
2026-05-05 18:40 35.32508 -97.28424 33818 ft 351 kts 274°
2026-05-05 18:40 35.33125 -97.34355 33824 ft 351 kts 274°
2026-05-05 18:41 35.33746 -97.40343 33827 ft 351 kts 274°
2026-05-05 18:41 35.34362 -97.46290 33822 ft 352 kts 274°
2026-05-05 18:42 35.34977 -97.52261 33835 ft 352 kts 274°
2026-05-05 18:42 35.35590 -97.58210 33832 ft 352 kts 274°
2026-05-05 18:43 35.35820 -97.64148 33831 ft 350 kts 268°
2026-05-05 18:43 35.35734 -97.70128 33833 ft 351 kts 268°
2026-05-05 18:44 35.35650 -97.76115 33826 ft 351 kts 268°
2026-05-05 18:44 35.35565 -97.82077 33871 ft 352 kts 268°
2026-05-05 18:45 35.35477 -97.88074 33864 ft 352 kts 267°
2026-05-05 18:45 35.35379 -97.94055 33867 ft 352 kts 267°
2026-05-05 18:46 35.35282 -98.00058 33875 ft 352 kts 267°
2026-05-05 18:46 35.35182 -98.06055 33872 ft 352 kts 267°
2026-05-05 18:47 35.35079 -98.12056 33862 ft 352 kts 267°
2026-05-05 18:47 35.34974 -98.18054 33853 ft 352 kts 267°
2026-05-05 18:48 35.34869 -98.24060 33847 ft 353 kts 267°
2026-05-05 18:48 35.34754 -98.30045 33839 ft 353 kts 267°
2026-05-05 18:49 35.34633 -98.36077 33834 ft 354 kts 267°
2026-05-05 18:49 35.34513 -98.42103 33858 ft 354 kts 267°
2026-05-05 18:50 35.34394 -98.48124 33873 ft 353 kts 266°
2026-05-05 18:50 35.34269 -98.54146 33881 ft 354 kts 266°
2026-05-05 18:51 35.34144 -98.60179 33889 ft 354 kts 266°
2026-05-05 18:51 35.34013 -98.66208 33892 ft 354 kts 266°
2026-05-05 18:52 35.33878 -98.72285 33891 ft 354 kts 266°
2026-05-05 18:52 35.33747 -98.78299 33887 ft 354 kts 266°
2026-05-05 18:53 35.33612 -98.84330 33878 ft 354 kts 266°
2026-05-05 18:53 35.33469 -98.90402 33887 ft 354 kts 266°
2026-05-05 18:54 35.33319 -98.96406 33901 ft 354 kts 266°
2026-05-05 18:54 35.33163 -99.02443 33920 ft 354 kts 266°
2026-05-05 18:55 35.33006 -99.08475 33934 ft 354 kts 266°
2026-05-05 18:55 35.32852 -99.14511 33937 ft 354 kts 266°
2026-05-05 18:56 35.32701 -99.20534 33937 ft 354 kts 266°
2026-05-05 18:56 35.32544 -99.26578 33939 ft 354 kts 265°
2026-05-05 18:57 35.32371 -99.32607 33938 ft 354 kts 265°
2026-05-05 18:57 35.32197 -99.38636 33922 ft 354 kts 265°
2026-05-05 18:58 35.32032 -99.44655 33917 ft 353 kts 265°
2026-05-05 18:58 35.31862 -99.50755 33913 ft 353 kts 265°
2026-05-05 18:59 35.31683 -99.56757 33901 ft 353 kts 265°
2026-05-05 18:59 35.31498 -99.62759 33894 ft 352 kts 265°
2026-05-05 19:00 35.31315 -99.68760 33885 ft 352 kts 265°
2026-05-05 19:00 35.31133 -99.74782 33874 ft 352 kts 265°
2026-05-05 19:01 35.30951 -99.80763 33864 ft 351 kts 265°
2026-05-05 19:01 35.30761 -99.86711 33862 ft 351 kts 265°
2026-05-05 19:02 35.30565 -99.92685 33863 ft 351 kts 265°
2026-05-05 19:02 35.30370 -99.98665 33859 ft 350 kts 265°
2026-05-05 19:03 35.30174 -100.04624 33859 ft 350 kts 264°
2026-05-05 19:03 35.29969 -100.10574 33868 ft 350 kts 264°
2026-05-05 19:04 35.29767 -100.16530 33865 ft 350 kts 264°
2026-05-05 19:04 35.29558 -100.22476 33864 ft 349 kts 264°
2026-05-05 19:05 35.29348 -100.28418 33865 ft 349 kts 264°
2026-05-05 19:05 35.29134 -100.34347 33869 ft 349 kts 264°
2026-05-05 19:06 35.28954 -100.39276 33872 ft 348 kts 264°
2026-05-05 19:06 35.28743 -100.45201 33866 ft 348 kts 264°
2026-05-05 19:07 35.28530 -100.51121 33868 ft 348 kts 264°
2026-05-05 19:07 35.28305 -100.57042 33869 ft 347 kts 264°
2026-05-05 19:08 35.28080 -100.62954 33869 ft 347 kts 264°
2026-05-05 19:08 35.27850 -100.68828 33869 ft 347 kts 264°
2026-05-05 19:09 35.27622 -100.74735 33867 ft 347 kts 264°
2026-05-05 19:09 35.27394 -100.80637 33867 ft 347 kts 264°
2026-05-05 19:10 35.27162 -100.86560 33870 ft 347 kts 263°
2026-05-05 19:10 35.26921 -100.92458 33876 ft 347 kts 263°
2026-05-05 19:11 35.26671 -100.98367 33882 ft 347 kts 263°
2026-05-05 19:11 35.26429 -101.04268 33870 ft 347 kts 263°
2026-05-05 19:12 35.26181 -101.10173 33875 ft 347 kts 263°
2026-05-05 19:12 35.25935 -101.16086 33874 ft 347 kts 263°
2026-05-05 19:13 35.25684 -101.21989 33867 ft 347 kts 263°
2026-05-05 19:13 35.25423 -101.27900 33869 ft 348 kts 263°
2026-05-05 19:14 35.25158 -101.33810 33892 ft 348 kts 263°
2026-05-05 19:14 35.24900 -101.39717 33915 ft 348 kts 263°
2026-05-05 19:15 35.24635 -101.45630 33930 ft 348 kts 262°
2026-05-05 19:15 35.24366 -101.51537 33959 ft 348 kts 262°
2026-05-05 19:16 35.24096 -101.57459 33981 ft 348 kts 262°
2026-05-05 19:16 35.23812 -101.63505 33990 ft 348 kts 262°
2026-05-05 19:17 35.23535 -101.69412 33984 ft 348 kts 262°
2026-05-05 19:17 35.23332 -101.75347 33979 ft 349 kts 263°
2026-05-05 19:18 35.23221 -101.81290 33983 ft 349 kts 263°
2026-05-05 19:18 35.23101 -101.87239 33961 ft 349 kts 263°
2026-05-05 19:19 35.22955 -101.93176 33939 ft 349 kts 263°
2026-05-05 19:19 35.22797 -101.99125 33924 ft 349 kts 263°
2026-05-05 19:20 35.22648 -102.05080 33904 ft 350 kts 263°
2026-05-05 19:20 35.22494 -102.11037 33890 ft 350 kts 263°
2026-05-05 19:21 35.22332 -102.16983 33881 ft 350 kts 263°
2026-05-05 19:21 35.22169 -102.22934 33882 ft 350 kts 262°
2026-05-05 19:22 35.22003 -102.28900 33880 ft 351 kts 262°
2026-05-05 19:22 35.21832 -102.34843 33883 ft 351 kts 262°
2026-05-05 19:23 35.21664 -102.40825 33888 ft 351 kts 262°
2026-05-05 19:23 35.21496 -102.46788 33891 ft 351 kts 262°
2026-05-05 19:24 35.21319 -102.52772 33895 ft 352 kts 262°
2026-05-05 19:24 35.21133 -102.58794 33890 ft 352 kts 262°
2026-05-05 19:25 35.20949 -102.64743 33893 ft 352 kts 262°
2026-05-05 19:25 35.20758 -102.70743 33895 ft 352 kts 262°
2026-05-05 19:26 35.20571 -102.76778 33890 ft 353 kts 262°
2026-05-05 19:26 35.20379 -102.82771 33889 ft 353 kts 262°
2026-05-05 19:27 35.20180 -102.88772 33887 ft 353 kts 262°
2026-05-05 19:27 35.19982 -102.94748 33886 ft 354 kts 262°
2026-05-05 19:28 35.19782 -103.00759 33880 ft 354 kts 262°
2026-05-05 19:28 35.19577 -103.06778 33878 ft 354 kts 262°
2026-05-05 19:29 35.19365 -103.12844 33875 ft 355 kts 262°
2026-05-05 19:29 35.19152 -103.18837 33880 ft 355 kts 262°
2026-05-05 19:30 35.18938 -103.24883 33896 ft 355 kts 262°
2026-05-05 19:30 35.18715 -103.30926 33911 ft 356 kts 262°
2026-05-05 19:31 35.18493 -103.36962 33932 ft 356 kts 262°
2026-05-05 19:31 35.18310 -103.41999 33949 ft 356 kts 262°
2026-05-05 19:32 35.18082 -103.48057 33964 ft 356 kts 262°
2026-05-05 19:32 35.17847 -103.54105 33968 ft 356 kts 262°
2026-05-05 19:33 35.17617 -103.60150 33969 ft 356 kts 262°
2026-05-05 19:33 35.17386 -103.66191 33970 ft 356 kts 262°
2026-05-05 19:34 35.17147 -103.72242 33963 ft 356 kts 262°
2026-05-05 19:35 35.16779 -103.81306 33921 ft 356 kts 262°
2026-05-05 19:35 35.16529 -103.87363 33892 ft 356 kts 262°
2026-05-05 19:36 35.16281 -103.93412 33859 ft 356 kts 262°
2026-05-05 19:36 35.16030 -103.99467 33828 ft 356 kts 262°
2026-05-05 19:37 35.15775 -104.05505 33790 ft 356 kts 262°
2026-05-05 19:37 35.15519 -104.11551 33780 ft 356 kts 262°
2026-05-05 19:38 35.15257 -104.17567 33772 ft 356 kts 262°
2026-05-05 19:38 35.14991 -104.23604 33762 ft 356 kts 261°
2026-05-05 19:39 35.14721 -104.29647 33756 ft 356 kts 261°
2026-05-05 19:39 35.14449 -104.35696 33786 ft 356 kts 261°
2026-05-05 19:40 35.14170 -104.41741 33796 ft 356 kts 261°
2026-05-05 19:40 35.13891 -104.47798 33819 ft 356 kts 261°
2026-05-05 19:41 35.13616 -104.53814 33842 ft 357 kts 261°
2026-05-05 19:41 35.13330 -104.59870 33849 ft 357 kts 261°
2026-05-05 19:42 35.13042 -104.65926 33854 ft 357 kts 261°
2026-05-05 19:42 35.12756 -104.71986 33848 ft 357 kts 261°
2026-05-05 19:43 35.12462 -104.78027 33835 ft 357 kts 261°
2026-05-05 19:43 35.12166 -104.84090 33818 ft 357 kts 261°
2026-05-05 19:44 35.11870 -104.90110 33794 ft 357 kts 260°
2026-05-05 19:44 35.11564 -104.96196 33766 ft 357 kts 260°
2026-05-05 19:45 35.11254 -105.02226 33734 ft 358 kts 261°
2026-05-05 19:45 35.10996 -105.08302 33739 ft 359 kts 262°
2026-05-05 19:46 35.10831 -105.14406 33748 ft 359 kts 262°
2026-05-05 19:46 35.10663 -105.20507 33756 ft 360 kts 261°
2026-05-05 19:47 35.10468 -105.26615 33762 ft 359 kts 261°
2026-05-05 19:47 35.10259 -105.32714 33770 ft 360 kts 261°
2026-05-05 19:48 35.10046 -105.38823 33781 ft 360 kts 261°
2026-05-05 19:48 35.09835 -105.44921 33796 ft 359 kts 261°
2026-05-05 19:49 35.09630 -105.51035 33806 ft 360 kts 261°
2026-05-05 19:49 35.09422 -105.57126 33813 ft 359 kts 261°
2026-05-05 19:50 35.09203 -105.63221 33820 ft 359 kts 261°
2026-05-05 19:50 35.08984 -105.69300 33824 ft 358 kts 261°
2026-05-05 19:51 35.08764 -105.75381 33825 ft 357 kts 261°
2026-05-05 19:51 35.08541 -105.81441 33826 ft 357 kts 261°
2026-05-05 19:52 35.08311 -105.87482 33828 ft 356 kts 261°
2026-05-05 19:52 35.08081 -105.93517 33827 ft 355 kts 261°
2026-05-05 19:53 35.07852 -105.99543 33831 ft 355 kts 261°
2026-05-05 19:53 35.07619 -106.05556 33830 ft 354 kts 261°
2026-05-05 19:54 35.07383 -106.11564 33829 ft 354 kts 261°
2026-05-05 19:54 35.07139 -106.17574 33829 ft 354 kts 261°
2026-05-05 19:55 35.06894 -106.23603 33874 ft 353 kts 261°
2026-05-05 19:55 35.06651 -106.29550 33911 ft 353 kts 261°
2026-05-05 19:56 35.06401 -106.35568 33937 ft 353 kts 261°
2026-05-05 19:56 35.06147 -106.41555 33969 ft 352 kts 261°
2026-05-05 19:57 35.05891 -106.47556 34004 ft 352 kts 261°
2026-05-05 19:57 35.05636 -106.53514 34021 ft 351 kts 261°
2026-05-05 19:58 35.05378 -106.59473 34020 ft 351 kts 261°
2026-05-05 19:58 35.05118 -106.65425 33993 ft 354 kts 261°
2026-05-05 19:59 35.04885 -106.70566 33993 ft 361 kts 261°
2026-05-05 19:59 35.04607 -106.76691 34021 ft 362 kts 261°
2026-05-05 20:00 35.04329 -106.82828 34014 ft 362 kts 261°
2026-05-05 20:00 35.04160 -106.88982 33995 ft 362 kts 262°
2026-05-05 20:01 35.04047 -106.95125 33970 ft 362 kts 262°
2026-05-05 20:01 35.03911 -107.01266 33939 ft 362 kts 261°
2026-05-05 20:02 35.03756 -107.07409 33903 ft 362 kts 261°
2026-05-05 20:02 35.03593 -107.13515 33870 ft 362 kts 261°
2026-05-05 20:03 35.03425 -107.19716 33826 ft 363 kts 261°
2026-05-05 20:03 35.03259 -107.25836 33825 ft 363 kts 261°
2026-05-05 20:04 35.03089 -107.32042 33833 ft 363 kts 261°
2026-05-05 20:04 35.02916 -107.38216 33838 ft 363 kts 261°
2026-05-05 20:05 35.02738 -107.44384 33839 ft 363 kts 261°
2026-05-05 20:05 35.02555 -107.50545 33845 ft 363 kts 261°
2026-05-05 20:06 35.02370 -107.56717 33883 ft 363 kts 261°
2026-05-05 20:06 35.02189 -107.62891 33923 ft 363 kts 261°
2026-05-05 20:07 35.02006 -107.69014 33959 ft 363 kts 261°
2026-05-05 20:07 35.01816 -107.75170 33982 ft 363 kts 261°
2026-05-05 20:08 35.01618 -107.81318 34004 ft 363 kts 261°
2026-05-05 20:08 35.01412 -107.87471 34015 ft 363 kts 260°
2026-05-05 20:09 35.01206 -107.93622 34011 ft 363 kts 261°
2026-05-05 20:09 35.01008 -107.99790 33994 ft 363 kts 260°
2026-05-05 20:10 35.00803 -108.05953 33973 ft 363 kts 260°
2026-05-05 20:10 35.00592 -108.12113 33951 ft 363 kts 260°
2026-05-05 20:11 35.00377 -108.18263 33921 ft 363 kts 260°
2026-05-05 20:11 35.00161 -108.24409 33894 ft 362 kts 260°
2026-05-05 20:12 34.99937 -108.30557 33877 ft 362 kts 260°
2026-05-05 20:12 34.99716 -108.36698 33874 ft 363 kts 260°
2026-05-05 20:13 34.99494 -108.42852 33879 ft 363 kts 260°
2026-05-05 20:13 34.99262 -108.48996 33881 ft 362 kts 260°
2026-05-05 20:14 34.99035 -108.55111 33883 ft 362 kts 260°
2026-05-05 20:14 34.98799 -108.61258 33877 ft 362 kts 259°
2026-05-05 20:15 34.98556 -108.67405 33878 ft 363 kts 260°
2026-05-05 20:15 34.98316 -108.73524 33879 ft 363 kts 259°
2026-05-05 20:16 34.98071 -108.79680 33866 ft 363 kts 260°
2026-05-05 20:16 34.97828 -108.85878 33874 ft 364 kts 259°
2026-05-05 20:17 34.97576 -108.92064 33876 ft 364 kts 259°
2026-05-05 20:17 34.97318 -108.98182 33878 ft 364 kts 259°
2026-05-05 20:18 34.97060 -109.04346 33881 ft 364 kts 259°
2026-05-05 20:18 34.96792 -109.10512 33881 ft 364 kts 259°
2026-05-05 20:19 34.96524 -109.16676 33878 ft 364 kts 259°
2026-05-05 20:19 34.96147 -109.22831 33877 ft 363 kts 258°
2026-05-05 20:20 34.95717 -109.28962 33882 ft 363 kts 258°
2026-05-05 20:20 34.95287 -109.35098 33875 ft 363 kts 258°
2026-05-05 20:21 34.94870 -109.41233 33878 ft 363 kts 258°
2026-05-05 20:21 34.94451 -109.47369 33874 ft 363 kts 258°
2026-05-05 20:22 34.94033 -109.53503 33870 ft 363 kts 258°
2026-05-05 20:22 34.93612 -109.59630 33871 ft 363 kts 258°
2026-05-05 20:23 34.93193 -109.65756 33871 ft 363 kts 258°
2026-05-05 20:23 34.92765 -109.71899 33870 ft 363 kts 258°
2026-05-05 20:24 34.92334 -109.78028 33867 ft 363 kts 258°
2026-05-05 20:24 34.91907 -109.84170 33866 ft 363 kts 258°
2026-05-05 20:25 34.91471 -109.90307 33863 ft 364 kts 257°
2026-05-05 20:25 34.91024 -109.96447 33862 ft 364 kts 257°
2026-05-05 20:26 34.90579 -110.02587 33867 ft 364 kts 258°
2026-05-05 20:26 34.90135 -110.08734 33864 ft 364 kts 257°
2026-05-05 20:27 34.89684 -110.14893 33867 ft 364 kts 257°
2026-05-05 20:27 34.89233 -110.21042 33864 ft 364 kts 257°
2026-05-05 20:28 34.88777 -110.27186 33865 ft 364 kts 257°
2026-05-05 20:28 34.88320 -110.33334 33870 ft 365 kts 257°
2026-05-05 20:29 34.87853 -110.39497 33891 ft 365 kts 257°
2026-05-05 20:29 34.87385 -110.45617 33914 ft 365 kts 257°
2026-05-05 20:30 34.86913 -110.51786 33934 ft 365 kts 257°
2026-05-05 20:30 34.86434 -110.57954 33952 ft 366 kts 257°
2026-05-05 20:31 34.85958 -110.64124 33960 ft 366 kts 257°
2026-05-05 20:31 34.85485 -110.70284 33968 ft 366 kts 257°
2026-05-05 20:32 34.85002 -110.76447 33953 ft 365 kts 257°
2026-05-05 20:32 34.84515 -110.82576 33953 ft 366 kts 257°
2026-05-05 20:33 34.84023 -110.88752 33928 ft 366 kts 257°
2026-05-05 20:33 34.83613 -110.93927 33922 ft 367 kts 257°
2026-05-05 20:34 34.83118 -111.00107 33899 ft 368 kts 257°
2026-05-05 20:34 34.82619 -111.06272 33873 ft 368 kts 257°
2026-05-05 20:35 34.82109 -111.12492 33869 ft 369 kts 257°
2026-05-05 20:35 34.81595 -111.18733 33869 ft 370 kts 257°
2026-05-05 20:36 34.81082 -111.24981 33873 ft 371 kts 257°
2026-05-05 20:36 34.80565 -111.31225 33877 ft 372 kts 257°
2026-05-05 20:37 34.80042 -111.37497 33885 ft 373 kts 257°
2026-05-05 20:37 34.79516 -111.43749 33905 ft 374 kts 257°
2026-05-05 20:38 34.78979 -111.50052 33924 ft 375 kts 257°
2026-05-05 20:38 34.78441 -111.56388 33949 ft 377 kts 257°
2026-05-05 20:39 34.77902 -111.62708 33963 ft 378 kts 257°
2026-05-05 20:39 34.77347 -111.69106 33979 ft 379 kts 258°
2026-05-05 20:40 34.76794 -111.75496 33981 ft 381 kts 258°
2026-05-05 20:40 34.76232 -111.81961 33984 ft 382 kts 258°
2026-05-05 20:41 34.75671 -111.88355 33972 ft 384 kts 258°
2026-05-05 20:41 34.75092 -111.94868 33947 ft 386 kts 258°
2026-05-05 20:42 34.74519 -112.01368 33918 ft 387 kts 258°
2026-05-05 20:42 34.73936 -112.07895 33891 ft 389 kts 258°
2026-05-05 20:43 34.73344 -112.14442 33910 ft 391 kts 258°
2026-05-05 20:43 34.72745 -112.21038 33944 ft 393 kts 258°
2026-05-05 20:44 34.72138 -112.27666 33978 ft 395 kts 258°
2026-05-05 20:44 34.71524 -112.34311 34005 ft 396 kts 258°
2026-05-05 20:45 34.70604 -112.44325 34009 ft 398 kts 258°
2026-05-05 20:45 34.69965 -112.51009 34007 ft 398 kts 258°
2026-05-05 20:46 34.69218 -112.57687 33974 ft 399 kts 257°
2026-05-05 20:46 34.68426 -112.64431 33938 ft 401 kts 257°
2026-05-05 20:47 34.67652 -112.71146 33905 ft 402 kts 257°
2026-05-05 20:47 34.66888 -112.77899 33875 ft 403 kts 257°
2026-05-05 20:48 34.66107 -112.84712 33842 ft 405 kts 257°
2026-05-05 20:48 34.65319 -112.91486 33840 ft 406 kts 257°
2026-05-05 20:49 34.64532 -112.98279 33829 ft 407 kts 258°
2026-05-05 20:49 34.63737 -113.05110 33848 ft 409 kts 258°
2026-05-05 20:50 34.62942 -113.11965 33840 ft 410 kts 258°
2026-05-05 20:50 34.62142 -113.18836 33838 ft 412 kts 258°
2026-05-05 20:51 34.61321 -113.25732 33841 ft 413 kts 258°
2026-05-05 20:51 34.60500 -113.32607 33849 ft 414 kts 258°
2026-05-05 20:52 34.59670 -113.39585 33849 ft 415 kts 258°
2026-05-05 20:52 34.58835 -113.46545 33850 ft 416 kts 258°
2026-05-05 20:53 34.57995 -113.53504 33850 ft 417 kts 258°
2026-05-05 20:53 34.57148 -113.60484 33856 ft 419 kts 258°
2026-05-05 20:54 34.56296 -113.67477 33855 ft 420 kts 258°
2026-05-05 20:54 34.55438 -113.74499 33858 ft 421 kts 258°
2026-05-05 20:55 34.54571 -113.81527 33862 ft 422 kts 258°
2026-05-05 20:55 34.53699 -113.88564 33866 ft 422 kts 258°
2026-05-05 20:56 34.52830 -113.95618 33871 ft 423 kts 258°
2026-05-05 20:56 34.51951 -114.02688 33885 ft 424 kts 258°
2026-05-05 20:57 34.50730 -114.09661 33897 ft 422 kts 253°
2026-05-05 20:57 34.49266 -114.16571 33910 ft 423 kts 253°
2026-05-05 20:58 34.47809 -114.23452 33919 ft 424 kts 253°
2026-05-05 20:58 34.46339 -114.30380 33922 ft 424 kts 253°
2026-05-05 20:59 34.44855 -114.37360 33921 ft 425 kts 253°
2026-05-05 20:59 34.43384 -114.44254 33917 ft 425 kts 253°
2026-05-05 21:00 34.41896 -114.51203 33911 ft 426 kts 253°
2026-05-05 21:00 34.40397 -114.58161 33904 ft 427 kts 253°
2026-05-05 21:01 34.38894 -114.65117 33902 ft 428 kts 253°
2026-05-05 21:01 34.37388 -114.72093 33902 ft 428 kts 253°
2026-05-05 21:02 34.36121 -114.77944 33899 ft 428 kts 253°
2026-05-05 21:02 34.34608 -114.84891 33901 ft 429 kts 253°
2026-05-05 21:03 34.33085 -114.91885 33910 ft 430 kts 253°
2026-05-05 21:03 34.31557 -114.98878 33917 ft 430 kts 253°
2026-05-05 21:04 34.30019 -115.05869 33921 ft 430 kts 253°
2026-05-05 21:04 34.28475 -115.12882 33917 ft 431 kts 253°
2026-05-05 21:05 34.26918 -115.19929 33917 ft 432 kts 253°
2026-05-05 21:05 34.25380 -115.26956 33916 ft 433 kts 254°
2026-05-05 21:06 34.23891 -115.33981 33918 ft 434 kts 254°
2026-05-05 21:06 34.22383 -115.41089 33921 ft 434 kts 254°
2026-05-05 21:07 34.20881 -115.48125 33923 ft 435 kts 254°
2026-05-05 21:07 34.19358 -115.55218 33925 ft 436 kts 254°
2026-05-05 21:08 34.17825 -115.62318 33932 ft 436 kts 254°
2026-05-05 21:08 34.16359 -115.69397 33931 ft 438 kts 259°
2026-05-05 21:09 34.15645 -115.76718 33940 ft 439 kts 262°
2026-05-05 21:09 34.14946 -115.84062 33966 ft 440 kts 262°
2026-05-05 21:10 34.14229 -115.91418 33978 ft 441 kts 262°
2026-05-05 21:10 34.13504 -115.98786 33993 ft 442 kts 262°
2026-05-05 21:11 34.12779 -116.06169 34005 ft 443 kts 262°
2026-05-05 21:11 34.12061 -116.13518 34003 ft 444 kts 262°
2026-05-05 21:12 34.11332 -116.20903 33486 ft 437 kts 262°
2026-05-05 21:12 34.10971 -116.24526 32661 ft 436 kts 262°
2026-05-05 21:12 34.10605 -116.28171 31818 ft 436 kts 262°
2026-05-05 21:13 34.10236 -116.31803 31005 ft 435 kts 263°
2026-05-05 21:13 34.09858 -116.35427 30206 ft 435 kts 263°
2026-05-05 21:13 34.09473 -116.39048 29262 ft 434 kts 263°
2026-05-05 21:13 34.09082 -116.42673 28292 ft 433 kts 263°
2026-05-05 21:14 34.08693 -116.46249 27371 ft 431 kts 263°
2026-05-05 21:14 34.08303 -116.49827 26484 ft 429 kts 263°
2026-05-05 21:14 34.07916 -116.53386 25623 ft 427 kts 264°
2026-05-05 21:14 34.07530 -116.56937 24787 ft 425 kts 264°
2026-05-05 21:15 34.07154 -116.60434 24124 ft 418 kts 264°
2026-05-05 21:15 34.06809 -116.63899 23477 ft 412 kts 265°
2026-05-05 21:15 34.06496 -116.67300 22728 ft 407 kts 265°
2026-05-05 21:15 34.06201 -116.70644 22017 ft 402 kts 266°
2026-05-05 21:16 34.05906 -116.73980 21300 ft 398 kts 265°
2026-05-05 21:16 34.05604 -116.77332 20603 ft 395 kts 265°
2026-05-05 21:16 34.05302 -116.80610 19928 ft 392 kts 265°
2026-05-05 21:16 34.05001 -116.83851 19287 ft 388 kts 265°
2026-05-05 21:17 34.04699 -116.87065 18770 ft 381 kts 265°
2026-05-05 21:17 34.04388 -116.90237 18424 ft 369 kts 264°
2026-05-05 21:17 34.04031 -116.93258 18069 ft 361 kts 263°
2026-05-05 21:17 34.03637 -116.96245 17696 ft 358 kts 262°
2026-05-05 21:18 34.03229 -116.99195 17337 ft 355 kts 262°
2026-05-05 21:18 34.02826 -117.02111 16963 ft 353 kts 262°
2026-05-05 21:18 34.02433 -117.05035 16596 ft 351 kts 262°
2026-05-05 21:18 34.02074 -117.07929 16260 ft 348 kts 263°
2026-05-05 21:19 34.01735 -117.10816 15892 ft 347 kts 263°
2026-05-05 21:19 34.01403 -117.13695 15548 ft 344 kts 263°
2026-05-05 21:19 34.01073 -117.16547 15254 ft 343 kts 263°
2026-05-05 21:19 34.00743 -117.19363 14963 ft 342 kts 263°
2026-05-05 21:20 34.00405 -117.22219 14667 ft 340 kts 263°
2026-05-05 21:20 34.00071 -117.25035 14378 ft 338 kts 263°
2026-05-05 21:20 33.99735 -117.27824 14085 ft 333 kts 262°
2026-05-05 21:20 33.99406 -117.30527 13802 ft 326 kts 262°
2026-05-05 21:21 33.99083 -117.33203 13468 ft 321 kts 262°
2026-05-05 21:21 33.98767 -117.35888 13150 ft 316 kts 263°
2026-05-05 21:21 33.98642 -117.38460 12839 ft 308 kts 278°
2026-05-05 21:21 33.99326 -117.40855 12520 ft 302 kts 303°
2026-05-05 21:22 34.00767 -117.42642 12220 ft 297 kts 328°
2026-05-05 21:22 34.02690 -117.43476 11994 ft 292 kts 354°
2026-05-05 21:22 34.04706 -117.43282 11981 ft 293 kts
2026-05-05 21:22 34.06711 -117.42782 11977 ft 294 kts 11°
2026-05-05 21:23 34.08710 -117.42252 11978 ft 294 kts 11°
2026-05-05 21:23 34.10709 -117.41755 11980 ft 291 kts
2026-05-05 21:23 34.12663 -117.41895 11827 ft 280 kts 343°
2026-05-05 21:23 34.14405 -117.42887 11553 ft 274 kts 322°
2026-05-05 21:24 34.15689 -117.44543 11280 ft 270 kts 302°
2026-05-05 21:24 34.16387 -117.46587 11007 ft 267 kts 282°
2026-05-05 21:24 34.16454 -117.48811 10738 ft 266 kts 262°
2026-05-05 21:24 34.15866 -117.50929 10471 ft 267 kts 242°
2026-05-05 21:25 34.14731 -117.52708 10224 ft 269 kts 231°
2026-05-05 21:25 34.13493 -117.54400 10019 ft 268 kts 231°
2026-05-05 21:25 34.12249 -117.56104 9988 ft 275 kts 231°
2026-05-05 21:25 34.10929 -117.57920 9992 ft 290 kts 231°
2026-05-05 21:26 34.09599 -117.59742 9995 ft 293 kts 231°
2026-05-05 21:26 34.08259 -117.61575 9993 ft 294 kts 231°
2026-05-05 21:26 34.06892 -117.63444 9991 ft 295 kts 231°
2026-05-05 21:26 34.05506 -117.65345 9990 ft 295 kts 231°
2026-05-05 21:27 34.04157 -117.67198 9990 ft 295 kts 231°
2026-05-05 21:27 34.02983 -117.69171 9963 ft 294 kts 243°
2026-05-05 21:27 34.02174 -117.71452 9605 ft 290 kts 257°
2026-05-05 21:27 34.01817 -117.73792 9273 ft 287 kts 266°
2026-05-05 21:28 34.01602 -117.76189 8925 ft 287 kts 266°
2026-05-05 21:28 34.01377 -117.78569 8583 ft 284 kts 265°
2026-05-05 21:28 34.01148 -117.80928 8248 ft 282 kts 265°
2026-05-05 21:28 34.00909 -117.83362 7888 ft 279 kts 264°
2026-05-05 21:29 34.00690 -117.85583 7588 ft 277 kts 264°
2026-05-05 21:29 34.00462 -117.87889 7258 ft 275 kts 264°
2026-05-05 21:29 34.00236 -117.90168 6937 ft 273 kts 264°
2026-05-05 21:29 34.00011 -117.92430 6621 ft 271 kts 264°
2026-05-05 21:30 33.99788 -117.94678 6297 ft 270 kts 264°
2026-05-05 21:30 33.99565 -117.96915 5964 ft 268 kts 263°
2026-05-05 21:30 33.99344 -117.99137 5631 ft 266 kts 263°
2026-05-05 21:30 33.99121 -118.01376 5305 ft 265 kts 263°
2026-05-05 21:31 33.98900 -118.03581 4968 ft 264 kts 263°
2026-05-05 21:31 33.98684 -118.05738 4646 ft 263 kts 263°
2026-05-05 21:31 33.98466 -118.07922 4306 ft 261 kts 263°
2026-05-05 21:31 33.98251 -118.10074 4034 ft 258 kts 262°
2026-05-05 21:32 33.98042 -118.12169 4007 ft 240 kts 262°
2026-05-05 21:32 33.97852 -118.14082 3981 ft 220 kts 262°
2026-05-05 21:32 33.97673 -118.15874 3994 ft 212 kts 262°
2026-05-05 21:32 33.97555 -118.17040 3920 ft 210 kts 262°
2026-05-05 21:33 33.97321 -118.19331 3606 ft 203 kts 262°
2026-05-05 21:33 33.97152 -118.21012 3327 ft 197 kts 262°
2026-05-05 21:33 33.96996 -118.22573 3081 ft 185 kts 261°
2026-05-05 21:33 33.96843 -118.24082 2840 ft 180 kts 262°
2026-05-05 21:34 33.96747 -118.25041 2680 ft 179 kts 261°
2026-05-05 21:34 33.96597 -118.26527 2448 ft 160 kts 262°
2026-05-05 21:34 33.96470 -118.27784 2237 ft 151 kts 260°
2026-05-05 21:34 33.96350 -118.28981 2036 ft 139 kts 260°
2026-05-05 21:35 33.96230 -118.30161 1855 ft 140 kts 262°
2026-05-05 21:35 33.96111 -118.31331 1665 ft 142 kts 260°
2026-05-05 21:35 33.95991 -118.32514 1474 ft 143 kts 261°
2026-05-05 21:35 33.95877 -118.33637 1287 ft 143 kts 262°
2026-05-05 21:36 33.95753 -118.34844 1083 ft 146 kts 262°
2026-05-05 21:36 33.95632 -118.36044 864 ft 142 kts 263°
2026-05-05 21:36 33.95513 -118.37216 693 ft 140 kts 262°
2026-05-05 21:36 33.95402 -118.38389 513 ft 141 kts 262°
2026-05-05 21:37 33.95284 -118.39529 289 ft 133 kts 262°
2026-05-05 21:37 33.95170 -118.40626 124 ft 125 kts 262°
2026-05-05 21:37 33.95080 -118.41464 121 ft 81 kts 264°
2026-05-05 21:37 33.95025 -118.41999 121 ft 48 kts 262°
2026-05-05 21:38 33.94993 -118.42310 125 ft 32 kts 262°
2026-05-05 21:38 33.94934 -118.42552 126 ft 29 kts 240°
2026-05-05 21:38 33.94855 -118.42680 124 ft 18 kts 228°
2026-05-05 21:38 33.94752 -118.42768 121 ft 18 kts 201°
2026-05-05 21:39 33.94665 -118.42768 124 ft 13 kts 149°
2026-05-05 21:39 33.94639 -118.42666 126 ft 14 kts 85°
2026-05-05 21:39 33.94650 -118.42538 126 ft 16 kts 83°
2026-05-05 21:39 33.94660 -118.42439 122 ft 12 kts 83°
2026-05-05 21:40 33.94671 -118.42331 126 ft 14 kts 83°
2026-05-05 21:40 33.94683 -118.42220 126 ft 15 kts 83°
2026-05-05 21:40 33.94697 -118.42092 126 ft 16 kts 83°
2026-05-05 21:40 33.94710 -118.41971 126 ft 9 kts 83°
2026-05-05 21:41 33.94688 -118.41913 126 ft 8 kts 156°
2026-05-05 21:41 33.94626 -118.41902 123 ft 10 kts 173°
2026-05-05 21:41 33.94553 -118.41892 124 ft 11 kts 173°
2026-05-05 21:41 33.94466 -118.41879 123 ft 13 kts 172°
2026-05-05 21:42 33.94372 -118.41857 121 ft 15 kts 163°
2026-05-05 21:42 33.94270 -118.41835 123 ft 16 kts 179°
2026-05-05 21:42 33.94157 -118.41827 123 ft 17 kts 174°
2026-05-05 21:42 33.94036 -118.41811 124 ft 18 kts 174°
2026-05-05 21:43 33.93903 -118.41797 123 ft 20 kts 176°
2026-05-05 21:43 33.93801 -118.41789 123 ft 15 kts 176°
2026-05-05 21:43 33.93711 -118.41741 123 ft 16 kts 116°
2026-05-05 21:43 33.93713 -118.41608 122 ft 17 kts 83°
2026-05-05 21:44 33.93727 -118.41466 123 ft 18 kts 83°
2026-05-05 21:44 33.93743 -118.41315 126 ft 17 kts 83°
2026-05-05 21:44 33.93756 -118.41190 124 ft 18 kts 83°
2026-05-05 21:44 33.93772 -118.41028 126 ft 19 kts 83°
2026-05-05 21:45 33.93788 -118.40875 126 ft 13 kts 83°
2026-05-05 21:45 33.93799 -118.40763 126 ft 14 kts 83°
2026-05-05 21:45 33.93812 -118.40639 122 ft 15 kts 83°
2026-05-05 21:45 33.93824 -118.40551 124 ft 7 kts 64°
2026-05-05 21:46 33.93853 -118.40529 123 ft 8 kts 11°
2026-05-05 21:46 33.93934 -118.40537 123 ft 9 kts 353°
2026-05-05 21:46 33.93976 -118.40544 124 ft 6 kts 353°
2026-05-05 21:46 33.94020 -118.40550 124 ft 7 kts 353°
2026-05-05 21:47 33.94075 -118.40559 124 ft 9 kts 352°
2026-05-05 21:47 33.94109 -118.40564 122 ft 4 kts 352°
2026-05-05 21:47 33.94132 -118.40566 124 ft 4 kts
2026-05-05 21:47 33.94147 -118.40554 122 ft 4 kts 42°
2026-05-05 21:48 33.94148 -118.40537 121 ft 1 kts 85°
2026-05-05 21:48 33.94149 -118.40527 122 ft 2 kts 84°
2026-05-05 21:48 33.94150 -118.40513 124 ft 0 kts 84°
2026-05-05 21:48 33.94150 -118.40511 124 ft 0 kts 84°